Total_Precipitation_Accumulation
0.04 0.03 0.03 0.04 0.02 0.01 0.00 0.00 0.00 0.00 0.00 0.00 0.00 0.00 0.00 0.00 0.00 0.00 0.00 0.00 0.00 0.01 0.06 0.16 0.24 0.27 0.27 0.27 0.24 0.20 0.18 0.18 0.21 0.23 0.23 0.24 0.27 0.26 0.26 0.28 0.28 0.28 0.28 0.29 0.32 0.32 0.27 0.24 0.21
0.05 0.05 0.06 0.06 0.03 0.01 0.00 0.00 0.00 0.00 0.00 0.00 0.00 0.00 0.00 0.00 0.00 0.00 0.00 0.00 0.00 0.02 0.06 0.10 0.20 0.25 0.26 0.25 0.23 0.22 0.21 0.20 0.23 0.24 0.22 0.24 0.27 0.27 0.28 0.26 0.24 0.25 0.25 0.24 0.23 0.21 0.19 0.16 0.13
0.07 0.09 0.09 0.07 0.03 0.00 0.00 0.00 0.00 0.00 0.00 0.00 0.00 0.00 0.00 0.00 0.00 0.00 0.00 0.00 0.00 0.02 0.05 0.11 0.21 0.24 0.25 0.25 0.23 0.23 0.22 0.24 0.27 0.26 0.24 0.25 0.27 0.28 0.29 0.27 0.23 0.20 0.19 0.19 0.19 0.18 0.17 0.15 0.12
0.08 0.11 0.10 0.06 0.01 0.00 0.00 0.00 0.00 0.00 0.00 0.00 0.00 0.00 0.00 0.00 0.00 0.00 0.00 0.01 0.01 0.02 0.04 0.11 0.21 0.25 0.24 0.25 0.24 0.24 0.25 0.27 0.31 0.29 0.26 0.26 0.29 0.28 0.27 0.25 0.22 0.19 0.17 0.17 0.17 0.16 0.16 0.16 0.15
0.09 0.11 0.10 0.05 0.01 0.00 0.00 0.00 0.00 0.00 0.00 0.00 0.00 0.00 0.00 0.00 0.00 0.00 0.00 0.01 0.02 0.03 0.05 0.11 0.22 0.27 0.26 0.26 0.26 0.25 0.26 0.29 0.31 0.31 0.30 0.30 0.30 0.30 0.27 0.22 0.21 0.20 0.18 0.18 0.18 0.16 0.16 0.17 0.17
0.14 0.13 0.08 0.03 0.01 0.00 0.00 0.00 0.00 0.00 0.00 0.00 0.00 0.00 0.00 0.00 0.00 0.00 0.00 0.01 0.02 0.04 0.07 0.14 0.27 0.30 0.29 0.29 0.28 0.28 0.29 0.31 0.31 0.32 0.32 0.33 0.32 0.29 0.26 0.23 0.22 0.21 0.20 0.19 0.16 0.14 0.13 0.14 0.16
0.17 0.14 0.06 0.02 0.01 0.01 0.00 0.00 0.00 0.00 0.00 0.00 0.00 0.00 0.01 0.01 0.01 0.01 0.01 0.02 0.03 0.05 0.09 0.17 0.28 0.33 0.35 0.36 0.33 0.32 0.33 0.34 0.33 0.33 0.33 0.33 0.32 0.30 0.28 0.24 0.24 0.23 0.21 0.21 0.17 0.14 0.11 0.11 0.11
0.23 0.23 0.10 0.03 0.01 0.01 0.01 0.01 0.01 0.01 0.01 0.00 0.01 0.01 0.01 0.01 0.02 0.03 0.03 0.04 0.06 0.10 0.13 0.19 0.26 0.31 0.35 0.38 0.37 0.37 0.36 0.37 0.37 0.37 0.37 0.32 0.30 0.31 0.29 0.26 0.25 0.24 0.24 0.23 0.21 0.17 0.14 0.12 0.10
0.35 0.35 0.16 0.05 0.03 0.02 0.01 0.02 0.02 0.02 0.02 0.01 0.01 0.02 0.02 0.02 0.03 0.06 0.08 0.09 0.12 0.17 0.19 0.24 0.29 0.31 0.35 0.38 0.37 0.40 0.41 0.41 0.43 0.41 0.38 0.37 0.33 0.31 0.28 0.25 0.24 0.23 0.24 0.24 0.22 0.19 0.18 0.15 0.10
0.43 0.34 0.14 0.05 0.04 0.04 0.03 0.03 0.03 0.03 0.03 0.03 0.02 0.02 0.03 0.04 0.06 0.08 0.10 0.11 0.14 0.18 0.22 0.27 0.30 0.35 0.40 0.42 0.42 0.46 0.45 0.43 0.43 0.37 0.35 0.35 0.33 0.30 0.26 0.24 0.24 0.24 0.25 0.27 0.28 0.24 0.20 0.16 0.11
0.37 0.27 0.11 0.06 0.07 0.08 0.06 0.04 0.03 0.04 0.04 0.05 0.05 0.04 0.04 0.06 0.08 0.09 0.10 0.11 0.12 0.17 0.23 0.29 0.33 0.37 0.43 0.45 0.44 0.43 0.44 0.42 0.41 0.36 0.33 0.33 0.33 0.31 0.28 0.26 0.26 0.25 0.24 0.26 0.29 0.31 0.29 0.26 0.20
0.31 0.21 0.12 0.09 0.10 0.13 0.11 0.09 0.06 0.04 0.03 0.04 0.06 0.05 0.05 0.07 0.08 0.09 0.10 0.12 0.14 0.18 0.25 0.30 0.37 0.44 0.49 0.49 0.47 0.43 0.41 0.40 0.37 0.35 0.32 0.30 0.29 0.28 0.25 0.22 0.22 0.22 0.21 0.21 0.23 0.26 0.30 0.33 0.29
0.30 0.21 0.13 0.09 0.10 0.12 0.12 0.12 0.11 0.05 0.02 0.03 0.05 0.06 0.07 0.07 0.08 0.09 0.11 0.14 0.15 0.18 0.26 0.33 0.41 0.45 0.52 0.57 0.51 0.46 0.44 0.39 0.37 0.37 0.32 0.27 0.25 0.23 0.22 0.22 0.22 0.21 0.19 0.19 0.18 0.17 0.17 0.19 0.22
0.27 0.23 0.19 0.14 0.11 0.11 0.13 0.12 0.12 0.06 0.04 0.04 0.05 0.06 0.07 0.08 0.10 0.12 0.13 0.16 0.18 0.20 0.29 0.36 0.44 0.47 0.51 0.58 0.54 0.48 0.44 0.43 0.42 0.38 0.33 0.31 0.27 0.24 0.22 0.21 0.21 0.21 0.21 0.20 0.19 0.17 0.15 0.12 0.11
0.29 0.32 0.27 0.18 0.12 0.11 0.16 0.16 0.12 0.06 0.07 0.07 0.06 0.05 0.06 0.08 0.11 0.14 0.15 0.17 0.19 0.23 0.32 0.41 0.44 0.50 0.52 0.56 0.59 0.55 0.49 0.47 0.47 0.42 0.36 0.33 0.31 0.28 0.25 0.23 0.21 0.20 0.19 0.20 0.21 0.20 0.18 0.15 0.11
0.41 0.45 0.37 0.21 0.14 0.13 0.25 0.20 0.08 0.07 0.11 0.10 0.07 0.07 0.07 0.08 0.11 0.15 0.18 0.18 0.22 0.27 0.35 0.46 0.48 0.51 0.54 0.54 0.62 0.60 0.57 0.50 0.50 0.50 0.42 0.35 0.32 0.30 0.28 0.27 0.25 0.23 0.23 0.23 0.23 0.21 0.20 0.17 0.13
0.60 0.51 0.34 0.23 0.18 0.20 0.28 0.22 0.09 0.08 0.12 0.13 0.10 0.08 0.09 0.10 0.13 0.14 0.18 0.17 0.19 0.25 0.34 0.47 0.52 0.52 0.55 0.57 0.61 0.65 0.64 0.59 0.53 0.54 0.51 0.40 0.36 0.33 0.30 0.27 0.28 0.28 0.27 0.24 0.24 0.22 0.20 0.18 0.15
0.60 0.43 0.29 0.23 0.18 0.20 0.26 0.20 0.10 0.08 0.10 0.10 0.11 0.10 0.09 0.10 0.12 0.14 0.19 0.23 0.22 0.24 0.34 0.46 0.58 0.60 0.62 0.68 0.67 0.70 0.73 0.66 0.59 0.53 0.55 0.50 0.42 0.37 0.34 0.31 0.28 0.29 0.31 0.27 0.24 0.21 0.19 0.17 0.16
0.41 0.40 0.32 0.21 0.19 0.19 0.20 0.19 0.11 0.07 0.08 0.08 0.07 0.08 0.08 0.07 0.08 0.13 0.19 0.26 0.29 0.30 0.35 0.46 0.57 0.68 0.70 0.74 0.73 0.68 0.69 0.68 0.63 0.55 0.51 0.58 0.53 0.43 0.38 0.37 0.35 0.33 0.31 0.28 0.25 0.23 0.22 0.20 0.18
0.46 0.46 0.35 0.23 0.21 0.26 0.23 0.18 0.11 0.07 0.07 0.08 0.08 0.07 0.07 0.08 0.09 0.14 0.19 0.24 0.27 0.29 0.32 0.42 0.54 0.64 0.69 0.68 0.71 0.65 0.65 0.65 0.65 0.60 0.54 0.54 0.60 0.54 0.44 0.39 0.37 0.36 0.34 0.30 0.26 0.23 0.24 0.24 0.21
0.51 0.43 0.32 0.27 0.27 0.31 0.32 0.27 0.14 0.08 0.08 0.10 0.11 0.11 0.10 0.09 0.11 0.15 0.18 0.21 0.24 0.27 0.29 0.33 0.46 0.59 0.66 0.66 0.74 0.79 0.81 0.81 0.75 0.69 0.59 0.54 0.56 0.56 0.49 0.42 0.37 0.37 0.37 0.35 0.31 0.27 0.24 0.25 0.23
0.48 0.28 0.25 0.29 0.39 0.41 0.36 0.41 0.20 0.11 0.10 0.10 0.12 0.14 0.13 0.11 0.12 0.16 0.20 0.23 0.24 0.27 0.29 0.32 0.39 0.53 0.66 0.66 0.70 0.75 0.81 0.78 0.70 0.64 0.60 0.57 0.57 0.58 0.52 0.48 0.44 0.38 0.36 0.35 0.34 0.31 0.27 0.28 0.29
0.36 0.26 0.27 0.34 0.43 0.46 0.35 0.42 0.25 0.14 0.13 0.10 0.09 0.09 0.10 0.10 0.13 0.17 0.21 0.26 0.29 0.33 0.38 0.36 0.42 0.49 0.65 0.67 0.63 0.66 0.67 0.70 0.67 0.70 0.68 0.66 0.64 0.63 0.59 0.52 0.50 0.47 0.41 0.37 0.36 0.34 0.31 0.31 0.31
0.33 0.38 0.44 0.49 0.66 0.69 0.29 0.30 0.27 0.22 0.21 0.14 0.10 0.10 0.10 0.10 0.13 0.17 0.23 0.31 0.35 0.38 0.47 0.45 0.47 0.50 0.60 0.70 0.65 0.63 0.62 0.65 0.70 0.72 0.76 0.76 0.73 0.69 0.66 0.60 0.51 0.48 0.47 0.43 0.40 0.37 0.35 0.31 0.28
0.52 0.75 1.05 1.06 0.99 0.57 0.14 0.18 0.25 0.19 0.20 0.17 0.14 0.15 0.13 0.13 0.14 0.17 0.24 0.34 0.35 0.37 0.49 0.50 0.49 0.52 0.54 0.66 0.70 0.63 0.60 0.59 0.62 0.68 0.70 0.74 0.78 0.74 0.69 0.66 0.59 0.51 0.45 0.43 0.41 0.42 0.38 0.33 0.31
0.50 0.64 0.83 0.74 0.45 0.18 0.09 0.15 0.18 0.13 0.11 0.11 0.13 0.13 0.14 0.13 0.14 0.18 0.22 0.29 0.34 0.34 0.43 0.51 0.51 0.53 0.52 0.58 0.69 0.71 0.65 0.62 0.58 0.62 0.67 0.68 0.70 0.69 0.63 0.62 0.58 0.51 0.45 0.40 0.40 0.40 0.37 0.35 0.34
0.37 0.42 0.39 0.49 0.32 0.18 0.12 0.10 0.10 0.08 0.05 0.07 0.11 0.12 0.15 0.17 0.19 0.21 0.22 0.24 0.26 0.32 0.37 0.44 0.54 0.57 0.56 0.54 0.62 0.76 0.81 0.71 0.61 0.55 0.60 0.63 0.63 0.64 0.63 0.61 0.60 0.53 0.48 0.44 0.40 0.39 0.36 0.36 0.35
0.34 0.39 0.50 0.66 0.52 0.27 0.13 0.12 0.17 0.12 0.09 0.08 0.10 0.12 0.12 0.16 0.22 0.25 0.25 0.26 0.25 0.27 0.33 0.38 0.48 0.57 0.60 0.54 0.56 0.68 0.89 0.87 0.72 0.62 0.57 0.58 0.59 0.61 0.64 0.64 0.60 0.58 0.51 0.49 0.47 0.43 0.40 0.40 0.39
0.38 0.48 0.62 0.65 0.44 0.31 0.17 0.15 0.19 0.15 0.10 0.08 0.08 0.08 0.10 0.12 0.16 0.20 0.23 0.26 0.27 0.26 0.32 0.36 0.40 0.50 0.57 0.52 0.54 0.61 0.74 0.93 0.88 0.74 0.62 0.58 0.59 0.61 0.62 0.63 0.62 0.60 0.60 0.57 0.54 0.48 0.45 0.45 0.43
0.36 0.40 0.47 0.58 0.43 0.23 0.18 0.12 0.08 0.07 0.07 0.06 0.06 0.06 0.07 0.10 0.12 0.14 0.18 0.23 0.25 0.27 0.30 0.32 0.36 0.44 0.52 0.51 0.52 0.56 0.59 0.77 0.96 0.89 0.74 0.63 0.60 0.62 0.64 0.63 0.65 0.63 0.64 0.63 0.62 0.57 0.49 0.48 0.46